ROMMA est une association bénévole à but non lucratif. Votre soutien est indispensable : ADHERER à ROMMA ou FAIRE un DON

Crest - (26, Drôme)

Vallée de la Drôme (315 m)   Longitude: 5°2' E   Latitude: 44°44' N Station partenaire n°62
 

Détail journalier du     <<     >>

Température Precipitation Humidité Pression Vent Dir Rafale Dir. rafale Ensol.
Heure (°C) (mm) (%) (hPa) (km/h) (km/h) (min)
01:00 8.308510126ESE18ESE0
02:00 7.308710125SE16ESE0
03:00 8.008710125SE15SE0
04:00 7.608710122SE16ESE0
05:00 8.308510112ESE6SE0
06:00 7.308710115SE13SE0
07:00 7.108510126ESE18SE0
08:00 7.808410126SE15SE0
09:00 7.908410126SE16ESE21
10:00 9.008010136SE15ESE51
11:00 11.90.37610133ESE11SE60
12:00 12.807610136SE16ESE60
13:00 13.707110129SE19SE60
14:00 13.9074101213SE27SE43
15:00 13.3079101213SE29SE58
16:00 12.3077101214SE34SE27
17:00 11.0082101210SE23SE12
18:00 10.808310126SE21SE0
19:00 10.908010138SE19SE0
20:00 9.708410135SE11SE0
21:00 9.608410133SE13SE0
22:00 8.308610133SE11SE0
23:00 7.808510134SE15SE0
minuit 7.908710142SE8SE0

Graphique du 15-12-2019

 

Serveur OMMA